Regional Weather Roundup
Issued by NWS

Home | Current Version | Previous Version | Graphics & Text | Print | Product List | Glossary On
Versions: 1 2 3 4 5 6 7 8 9 10 11 12 13 14 15 16 17 18 19 20 21 22 23 24 25 26 27 28 29 30 31 32 33 34 35 36 37 38 39 40 41 42 43 44 45 46 47 48 49 50
000
ASUS43 KBIS 210010
RWRND

NORTH DAKOTA REGIONAL WEATHER ROUNDUP
NATIONAL WEATHER SERVICE BISMARCK ND
600 PM CST MON FEB 20 2017

NOTE: "FAIR" INDICATES FEW OR NO CLOUDS BELOW 12,000 FEET WITH NO
SIGNIFICANT WEATHER AND/OR OBSTRUCTIONS TO VISIBILITY.


NDZ001>003-009>011-017-210100-
NORTHWEST NORTH DAKOTA

CITY           SKY/WX    TMP DP  RH WIND       PRES   REMARKS
WILLISTON      FAIR      47  29  49 CALM      29.68S
6HR MIN TEMP:  41; 6HR MAX TEMP:  48;

MINOT          FAIR      44  35  70 SW12      29.68R
MINOT AFB      CLEAR     37  33  84 W6        29.67S
$$

NDZ018>021-031>035-040>046-210100-
SOUTHWEST NORTH DAKOTA

CITY           SKY/WX    TMP DP  RH WIND       PRES   REMARKS
BISMARCK       FAIR      50  34  54 W3        29.74F
6HR MIN TEMP:  43; 6HR MAX TEMP:  52;

DICKINSON      FAIR      45  26  47 SW7       29.70R
GARRISON         N/A     41  34  76 CALM      29.70S
6HR MIN TEMP:  40; 6HR MAX TEMP:  49; 6HR PCP:  0.01;

HETTINGER ARPT CLEAR     51  26  37 W3        29.75S
$$

NDZ004>008-012>016-024-026-027-054-210100-
NORTHEAST NORTH DAKOTA

CITY           SKY/WX    TMP DP  RH WIND       PRES   REMARKS
GRAND FORKS    CLOUDY    36  31  82 W3        29.67R
GRND FRKS AFB  CLOUDY    36  35  97 W5        29.68R
DEVILS LAKE    FOG       32  32 100 W13       29.69R VSB 1/4
$$

NDZ022-023-025-028>030-036>039-047>053-210100-
SOUTHEAST NORTH DAKOTA

CITY           SKY/WX    TMP DP  RH WIND       PRES   REMARKS
FARGO          CLOUDY    38  36  92 W12       29.71R
6HR MIN TEMP:  38; 6HR MAX TEMP:  50; 6HR PCP: TRACE;

JAMESTOWN      FAIR      39  35  86 W10       29.72R
$$





USA.gov is the U.S. government's official web portal to all federal, state and local government web resources and services.